Regional Weather Roundup
Issued by NWS

Home | Current Version | Previous Version | Graphics & Text | Print | Product List | Glossary On
Versions: 1 2 3 4 5 6 7 8 9 10 11 12 13 14 15 16 17 18 19 20 21 22 23 24 25 26 27 28
000
ASUS45 KCYS 240010
RWRWY

WYOMING REGIONAL WEATHER ROUNDUP
NATIONAL WEATHER SERVICE CHEYENNE WY
600 PM MDT THU OCT 23 2014

NOTE:  "FAIR" INDICATES FEW OR NO CLOUDS BELOW 12,000 FEET
WITH NO SIGNIFICANT WEATHER AND/OR OBSTRUCTIONS TO VISIBILITY.

WYZ001-240100-
YELLOWSTONE NATIONAL PARK

CITY           SKY/WX    TMP DP  RH WIND       PRES   REMARKS
LK YELLOWSTONE   N/A     44  26  49 CALM      30.17
6HR MIN TEMP:  44; 6HR MAX TEMP:  51;

W YELLOWSTONE  NOT AVBL

$$
WYZ002>013-054>058-071-098>099-240100-
NORTHERN WYOMING

CITY           SKY/WX    TMP DP  RH WIND       PRES   REMARKS
JACKSON        CLOUDY   N/A N/A N/A SW6       30.12R
CODY           MOCLDY    64  25  22 W8        29.96
GREYBULL       CLOUDY    65  26  23 NW5       29.90S
6HR MIN TEMP:  51; 6HR MAX TEMP:  70;

WORLAND        MOCLDY    66  28  24 E3        29.92R
6HR MIN TEMP:  55; 6HR MAX TEMP:  74;

SHERIDAN       CLOUDY    62  35  36 CALM      29.90R
6HR MIN TEMP:  60; 6HR MAX TEMP:  75;

BUFFALO        CLOUDY    58  27  30 W6        29.97R
6HR MIN TEMP:  58; 6HR MAX TEMP:  70;

GILLETTE       MOCLDY    48  33  56 S3        29.93R
6HR MIN TEMP:  48; 6HR MAX TEMP:  71;

HULETT         FAIR      61  27  27 CALM      29.95
NEWCASTLE      FAIR      59  27  29 CALM      29.95

$$
WYZ014>020-022>026-101>103-240100-
CENTRAL WYOMING

CITY           SKY/WX    TMP DP  RH WIND       PRES   REMARKS
BIG PINEY      PTCLDY    53  23  31 W10       30.18R
6HR MIN TEMP:  46; 6HR MAX TEMP:  64; 6HR PCP: TRACE;

PINEDALE       MOCLDY    52  28  40 CALM      30.19
DUBOIS         FAIR      52  21  30 N20G26    30.08F
LANDER         CLOUDY    61  29  29 NE3       30.01R
6HR MIN TEMP:  56; 6HR MAX TEMP:  65;

RIVERTON       MOCLDY    60  25  26 CALM      30.02R
6HR MIN TEMP:  55; 6HR MAX TEMP:  65;

CASPER         MOCLDY    62  22  21 SW13      30.02R
6HR MIN TEMP:  62; 6HR MAX TEMP:  71;

DOUGLAS        PTCLDY    62  26  25 W7        30.00S
6HR MIN TEMP:  62; 6HR MAX TEMP:  74;


$$
WYZ021-027>030-104>119-240100-
SOUTHERN WYOMING

CITY           SKY/WX    TMP DP  RH WIND       PRES   REMARKS
EVANSTON       MOCLDY    59  25  27 W12       30.18R
6HR MIN TEMP:  59; 6HR MAX TEMP:  67;

KEMMERER       PTCLDY    54  21  28 W15G22    30.18R
FORT BRIDGER   FAIR      62  24  23 W10       30.20R
ROCK SPRINGS   CLEAR     58  28  32 SW8       30.17R
6HR MIN TEMP:  54; 6HR MAX TEMP:  64;

DIXON          FAIR      61  31  32 SW8G17    30.21R
RAWLINS        MOCLDY    59  30  33 SW16G23   30.16R
6HR MIN TEMP:  54; 6HR MAX TEMP:  64;

SARATOGA       FAIR      57  30  35 SW12      30.20R
LARAMIE        CLOUDY    56  28  34 SW8       30.18R
6HR MIN TEMP:  56; 6HR MAX TEMP:  64;

CHEYENNE       MOCLDY    61  33  35 SW12      30.13R
6HR MIN TEMP:  61; 6HR MAX TEMP:  71;

TORRINGTON     CLEAR     68  29  23 W15       29.98R
6HR MIN TEMP:  61; 6HR MAX TEMP:  76;

PINE BLUFFS    FAIR      55  37  50 S6        30.08R

$$



USA.gov is the U.S. government's official web portal to all federal, state and local government web resources and services.